Location: Alma
(38.7220°N, 88.9090°W)
Time: 22:41:22
(UTC-06:00)

Vanguard 2 Rocket - Pass Details

Date: 22 November 2019
Orbit: 554 x 3326 km, 32.9° (Epoch: 13 December)

Event Time Altitude Azimuth Distance (km) Brightness Sun altitude
Rises 23:00:22 0° 226° (SW) 3,008 - -69.5°
Reaches altitude 10° 23:03:22 10° 208° (SSW) 1,914 - -69.8°
Maximum altitude 23:06:21 19° 161° (SSE) 1,335 - -70.0°
Drops below altitude 10° 23:09:15 10° 113° (ESE) 1,839 - -70.3°
Sets 23:12:03 0° 95° (E) 2,845 - -70.5°
